Hourly Data Report for October 17, 2016

All times are specified in Local Standard Time (LST). Add 1 hour to adjust for Daylight Saving Time where and when it is observed.

SAINT JOHN A
NEW BRUNSWICK

45°18'58.000" N
65°53'24.000" W
108.80 m
8104901
71609
YSJ

Download Data

Hourly Data (October 2016)
Hourly Data Report for October 17, 2016
Temp Definition
°C
Dew Point Temp Definition
°C
Rel Hum Definition
%
Wind Dir Definition
10's deg

Wind Spd Definition
km/h
Visibility Definition
km
Stn Press Definition
kPa
Hmdx Definition


Wind Chill Definition


Weather Definition


TIME
00:00 Legend Double Dagger 12.4 12.4 100 21 17 6.4 99.55     Rain,Fog
01:00 Legend Double Dagger 12.3 12.3 100 22 18 4.8 99.52     Fog
02:00 Legend Double Dagger 12.3 12.3 100 23 9 4.8 99.51     Fog
03:00 Legend Double Dagger 11.1 11.1 100 21 7 24.1 99.45     LegendNANA
04:00 Legend Double Dagger 9.9 9.9 100 20 8 0.4 99.43     Fog
05:00 Legend Double Dagger 10.7 10.7 100 24 4 0.4 99.47     Fog
06:00 Legend Double Dagger 10.0 10.0 100 35 4 1.2 99.51     Fog
07:00 Legend Double Dagger 8.5 8.5 100 36 2 24.1 99.53     LegendNANA
08:00 Legend Double Dagger 11.8 11.8 100 36 2 24.1 99.58     Mainly Clear
09:00 Legend Double Dagger 13.8 12.7 93 32 22 24.1 99.63     LegendNANA
10:00 Legend Double Dagger 15.4 11.6 78 34 19 24.1 99.62     LegendNANA
11:00 Legend Double Dagger 16.7 11.1 69 34 16 24.1 99.57     Mostly Cloudy
12:00 Legend Double Dagger 17.6 8.6 55 31 22 24.1 99.55     LegendNANA
13:00 Legend Double Dagger 18.6 8.1 50 28 17 24.1 99.52     LegendNANA
14:00 Legend Double Dagger 17.6 9.1 57 32 26 24.1 99.54     Mainly Clear
15:00 Legend Double Dagger 16.1 7.1 55 31 21 24.1 99.59     LegendNANA
16:00 Legend Double Dagger 15.4 6.0 53 30 25 24.1 99.66     LegendNANA
17:00 Legend Double Dagger 13.2 5.4 59 32 22 24.1 99.70     Mainly Clear
18:00 Legend Double Dagger 10.4 4.8 68 32 16 24.1 99.78     LegendNANA
19:00 Legend Double Dagger 8.6 4.6 76 31 10 24.1 99.83     LegendNANA
20:00 Legend Double Dagger 8.7 4.4 74 35 13 24.1 99.96     Mainly Clear
21:00 Legend Double Dagger 8.2 3.5 72 34 18 24.1 100.00     LegendNANA
22:00 Legend Double Dagger 7.8 3.5 74 34 15 24.1 100.06     LegendNANA
23:00 Legend Double Dagger 6.8 3.6 80 36 13 24.1 100.10     Mainly Clear

Notes on Data Quality.

Legend

  • E = Estimated
  • M = Missing
  • NA = Not Available
  • ‡ = Partner data that is not subject to review by the National Climate Archives
Date modified: